Location: Poughquag
(41.6090°N, 73.6820°W)
Time: 19:23:31
(UTC-05:00)

A-11 Canister half - Pass Details

Date: 12 December 2023
Orbit: 1526 x 1682 km, 47.3° (Epoch: 23 February)

Event Time Altitude Azimuth Distance (km) Brightness Sun altitude
Rises 18:31:26 0° 260° (W) 4,915 13.1 -22.9°
Reaches altitude 10° 18:34:37 10° 262° (W) 3,936 12.2 -23.5°
Maximum altitude 18:44:46 70° 346° (NNW) 1,769 9.2 -25.3°
Enters shadow 18:49:01 40° 57° (ENE) 2,309 9.4 -26.1°
